Location: Gisborne
(38.6530°S, 178.0040°E)
Time: 17:37:17
(UTC+13:00)

Cosmos 1356 - Pass Details

Date: 24 January 2019
Orbit: 448 x 452 km, 81.1° (Epoch: 20 February)

Event Time Altitude Azimuth Distance (km) Brightness Sun altitude
Exits shadow 22:12:21 43° 74° (ENE) 657 3.8 -17.3°
Maximum altitude 22:12:32 43° 85° (E) 652 3.8 -17.4°
Drops below altitude 10° 22:15:54 10° 157° (SSE) 1,612 6.5 -17.8°
Sets 22:18:03 0° 163° (SSE) 2,495 7.6 -18.1°
